Regional Weather Roundup
Issued by NWS

Home | Current Version | Previous Version | Graphics & Text | Print | Product List | Glossary On
Versions: 1 2 3 4 5 6 7 8 9 10 11 12 13 14 15 16 17 18 19 20 21 22 23 24 25 26 27 28 29 30 31 32 33 34 35 36 37 38
000
ASUS45 KBOU 271207
RWRCO

WEATHER ROUNDUP FOR COLORADO
NATIONAL WEATHER SERVICE DENVER/BOULDER CO
500 AM MST SAT DEC 27 2014

NOTE: "FAIR" INDICATES FEW OR NO CLOUDS BELOW 12000 FEET WITH NO
SIGNIFICANT WEATHER AND/OR OBSTRUCTIONS TO VISIBILITY.

COZ001>005-013-030-031-271300-
...NORTHWEST COLORADO...

CITY           SKY/WX    TMP DP  RH WIND       PRES   REMARKS
CRAIG          CLOUDY     3  -2  79 CALM      30.19R
HAYDEN         CLOUDY     9   3  78 S3        30.15R
MEEKER         CLOUDY     9   5  84 CALM      30.17R
MOUNT WERNER   NOT AVBL
STEAMBOAT SPGS CLOUDY     9   6  89 CALM      30.13R
WALDEN         CLOUDY   -13 -18  77 CALM      30.04R VSB 1/2
$$

COZ006>008-011-271300-
...WEST CENTRAL VALLEYS...

CITY           SKY/WX    TMP DP  RH WIND       PRES   REMARKS
GRAND JUNCTION CLOUDY     9   5  84 NW3       30.24R
MONTROSE       CLOUDY    17  12  80 S7        30.21R WCI   8
EAGLE          CLOUDY     7   5  92 CALM      30.18R
RIFLE          CLOUDY    11   5  77 SE5       30.22R WCI   3
DELTA          CLOUDY    22  13  66 W3        30.22R
NUCLA          MOCLDY    12   7  79 E7        30.22R WCI   2
$$

COZ017>023-064>068-271300-
...SOUTHWEST COLORADO...

CITY           SKY/WX    TMP DP  RH WIND       PRES   REMARKS
DURANGO        CLOUDY     6   1  80 N7        30.09R WCI  -6
CORTEZ         CLEAR      4   0  83 E7        30.15R WCI  -8
PAGOSA SPRINGS LGT SNOW  12  11  93 CALM      30.05R
TELLURIDE      PTCLDY     2  -1  86 SE7       30.02R WCI -10
WOLF CREEK PAS   N/A     -2  -4  92 MISG      29.89R
$$

COZ009-010-012-014-032>034-037-058>063-271300-
...CENTRAL COLORADO...

CITY           SKY/WX    TMP DP  RH WIND       PRES   REMARKS
ASPEN          CLOUDY     5  -1  76 SW5       30.08R WCI  -4
BUENA VISTA    NOT AVBL
COPPER MTN     CLOUDY     0  -8  71 W13       29.86R WCI -18
BERTHOUD PASS  CLOUDY    -9 -15  77 MISG      29.81R
COTTONWOOD PAS PTCLDY     9   3  78 W10G16    29.93R WCI  -6
GUNNISON       CLOUDY     1 -11  55 CALM      30.10R
KREMMLING      FLURRIES   9   3  78 CALM      30.11R
LEADVILLE      CLOUDY    -8 -13  78 NE10      29.94R WCI -26
SALIDA         PTCLDY     0  -4  82 W7        30.14R WCI -13
SUNLIGHT       CLOUDY   N/A N/A N/A CALM      29.96R HAZE
WILKERSON PASS PTCLDY     0  -4  85 NW9G16    29.88R WCI -16
$$

COZ069>075-271300-
...SAN LUIS VALLEY/SANGRE DE CRISTO MOUNTAINS...

CITY           SKY/WX    TMP DP  RH WIND       PRES   REMARKS
ALAMOSA        PTCLDY    -1  -5  82 N3        30.04R
LA VETA PASS   NOT AVBL
SAGUACHE       PTCLDY     3  -4  72 NW18      30.05R WCI -17
$$

COZ035-036-038>040-271300-
...NORTHERN COLORADO FRONT RANGE...

CITY           SKY/WX    TMP DP  RH WIND       PRES   REMARKS
DENVER INTL AP CLEAR     10   5  80 SW15      30.10R WCI  -7
DMNS CITY PARK   N/A      9   4  80 S6        30.12R WCI  -1
AURORA         CLEAR      6   4  91 S9        30.10R WCI  -8
FRONT RANGE AP CLEAR     12   9  85 MISG      30.10S
ERIE MUNI ARPT   N/A     -3  -6  87 CALM      30.11S
BOULDER MUN AP PTCLDY     9   5  85 CALM      30.09S
CENTENNIAL     CLEAR      1  -2  87 S3        30.08R
BROOMFIELD     PTCLDY    10   3  72 CALM      30.09R
FORT COLLINS   CLOUDY     3   1  92 CALM      30.11S VSB 1/4
LONGMONT       PTCLDY     1  -4  80 CALM      30.13S
$$

COZ041-046-047-076>085-087-088-271300-
...PIKES PEAK/PALMER DIVIDE AND SOUTHERN FOOTHILLS...

CITY           SKY/WX    TMP DP  RH WIND       PRES   REMARKS
COLO. SPRINGS  PTCLDY     7   3  84 NW9       30.07R WCI  -7
A. F. ACADEMY  PTCLDY    -2  -8  77 N12       30.04S WCI -20
ELLICOTT       NOT AVBL
FALCON         PTCLDY    10   2  72 NW6       30.03R WCI   0
FORT CARSON    PTCLDY     6   3  87 N8        30.07R WCI  -7
LIMON          CLEAR      2  -2  83 NW3       30.10R
MONUMENT HILL  PTCLDY     0  -4  85 W6        30.02R WCI -12
TRINIDAD       CLOUDY    14  11  87 CALM      30.11R
$$

COZ042>045-048>051-090-091-271300-
...NORTHEAST COLORADO...

CITY           SKY/WX    TMP DP  RH WIND       PRES   REMARKS
GREELEY ARPT   PTCLDY    -6 -13  71 CALM      30.12R
AKRON          PTCLDY     6   3  87 W17       30.10S WCI -13
BURLINGTON     CLEAR      3  -1  83 W10       30.14R WCI -12
WRAY           CLEAR      4   1  88 W7        30.16R WCI  -8
STERLING       CLEAR      7   5  92 S5        30.15R WCI  -2
HOLYOKE        CLEAR     12   7  79 NW9       30.14S WCI   0
FORT MORGAN    CLEAR      2  -1  87 W10       30.14R WCI -14
$$

COZ086-089-092>099-271300-
...SOUTHEAST COLORADO...

CITY           SKY/WX    TMP DP  RH WIND       PRES   REMARKS
PUEBLO         CLEAR     12   9  87 CALM      30.15R
LA JUNTA       CLEAR      9   5  84 SW12      30.19R WCI  -6
LAMAR          CLEAR      4   1  88 SW7       30.21R WCI  -8
SPRINGFIELD      N/A     10   7  87 NW9       30.16R WCI  -3
$$


USA.gov is the U.S. government's official web portal to all federal, state and local government web resources and services.